User: anonymous   Login
Location: Brede
(50.9167°N, 0.6000°E)
Time: 07:29:00
(UTC+00:00)
Language:

Meteor 1-24 Rocket - Orbit

View from above orbital plane
View from above orbital plane
View from above satellite
View from above satellite

Ground track
Ground track

The orbit data is extracted from the following two-line orbital elements,

1  8800U 76032B   20299.88419423 -.00000144 +00000-0 -84583-4 0  9998
2  8800 081.2478 103.9086 0094593 312.3389 046.9797 14.10151234290863
Epoch (UTC): 25 October 2020 21:13:14
Eccentricity: 0.0094593
inclination: 81.2478°
perigee height: 790 km
apogee height: 927 km
right ascension of ascending node: 103.9086°
argument of perigee: 312.3389°
revolutions per day: 14.10151234
mean anomaly at epoch: 46.9797°
orbit number at epoch: 29086

The dashed part of the orbit path shows where the satellite is in the earth's shadow,  

DLR